Location: Clover
(42.5131°N, 114.6874°W)
Time: 07:55:46
(UTC+00:00)

Courier 1B - Pass Details

Date: 09 November 2024
Orbit: 962 x 1208 km, 28.3° (Epoch: 06 December)

Event Time Altitude Azimuth Distance (km) Brightness Sun altitude
Rises 03:04:02 0° 252° (WSW) 3,681 11.5 -30.0°
Reaches altitude 10° 03:07:22 10° 236° (SW) 2,763 10.4 -30.6°
Maximum altitude 03:12:05 20° 191° (S) 2,151 9.3 -31.4°
Enters shadow 03:12:40 20° 184° (S) 2,169 9.3 -31.5°
